Погода Петропавловск-Камч.

Хотите узнать прогноз погоды Петропавловск-Камч.? Тогда Вам сюда: Погода Петропавловск-Камч.

Поиск расширенной информации на нашем сайте:

Полезная информация:

Новости сайта



02.01.2020
Опубликован Долгосрочный прогноз погоды по городам России и ближнего зарубежья на январь 2020 года.
Карты: Прогноз на январь и февраль 2020 года, Сравнение прогнозируемой аномалии приземной температуры воздуха на январь 2020 года по разным моделям.




Погода Петропавловск-Камч. - сегодня

Время (UTC), дата Ветер
(°,м/с) 
Видим.   Явления Облачность Т
(°С)
Тd
(°С)
f(%) Тe
(°С)
Pmin
(гПа)
dP
(гПа)
Po
(мм)
O2
(г/м3)
Тmin Tmax R s Состояние
почвы
15 16.04.21 300 (СЗ) 15-18{18}  20000 м    ясно 
-0.2 -8.8 52 -6  1017.3  1.7  761  308           
18 16.04.21 330 (СЗ) 10-13{18}  50000 м    3/1 600 м верхняя 
[Sc|Ci fib]
-0.5 -8.2 56 -5  1020.1  2.8  763  309           
21 16.04.21 300 (СЗ) 8-10{13}  20000 м    3/0 верхняя 
[Ci fib]
+0.6 -8.8 49 -4  1023.6  3.5  765  309  -0.6      48  мокрый или
старый снег
50-90% 
00 17.04.21 300 (СЗ) 10-13{14}  50000 м    4/0 верхняя 
[Ci fib]
+2.2 -8.3 46 -2  1024.8  1.2  766  307           
03 17.04.21 290 (З) 8-10{14}  50000 м    9/0 средняя, верхняя 
[Ac trans|Ci fib]
+3.8 -7.5 43 1025.4  0.7  767  306           
06 17.04.21 290 (З) 7{11}  20000 м    8/0 верхняя 
[Ci fib]
+4.3 -6.6 45 +1  1026.7  1.3  768  305           
09 17.04.21 340 (С) 50000 м    8/5 600 м средняя, верхняя 
[Sc|Ac trans|Ci fib]
+2.8 -6.8 49 +1  1028.1  1.4  769  307    +4.6       
12 17.04.21 020 (С) 20000 м    10/10 600 м 
[Sc]
+3.6 -10.8 34 +2  1028.3  0.2  769  307           
15 17.04.21 340 (С) 20000 м    8/1 600 м верхняя 
[Sc|Ci fib]
+1.2 -5.9 59 +1  1028.8  0.4  769  309           
18 17.04.21 340 (С) 20000 м    10/4 600 м верхняя 
[Sc|Ci fib]
+1.1 -6 59 +2  1029.5  0.7  770  310           
21 17.04.21 310 (СЗ) 50000 м    10/3 1000 м верхняя 
[Sc|Cs]
+2.2 -3.7 65 +2  1030.1  0.6  770  308  +0.3      43  мокрый или
старый снег
50-90% 
00 18.04.21 340 (С) 20000 м    9/3 1000 м верхняя 
[Sc|Cs]
+7.4 -5.3 40 +7  1029.4  -0.6  770  303           
03 18.04.21 140 (ЮВ) 20000 м    9/1 1000 м средняя, верхняя 
[Sc|Ac trans|Ci fib]
+7.3 -5.6 39 +7  1028  -1.4  769  302           
06 18.04.21 150 (ЮВ) 20000 м    10/6 600 м средняя, верхняя 
[Sc|Ac trans|Ci fib]
+5 -2.4 59 +4  1026.6  -1.4  768  304           
09 18.04.21 130 (ЮВ) 20000 м    10/3 1000 м средняя, верхняя 
[Sc|Ac trans|Ci fib]
+2.3 -2.2 72 1026.3  -0.4  767  307    +8.5       
12 18.04.21 тихо ()   20000 м    10/1 300 м верхняя 
[St|Ci fib]
+1.7 -1.7 78 +2  1026.5  0.2  768  308           
15 18.04.21 010 (С) 20000 м    8/8 300 м 
[St]
+1.7 -2.4 74 +1  1025.7  -0.7  767  307           
18 18.04.21 130 (ЮВ) 20000 м    10/3 600 м средняя 
[Sc|Ac trans]
+1.7 -3.9 66 1025.8  -0.1  767  308           
21 18.04.21 130 (ЮВ) 4{10}  20000 м    10/8 600 м средняя 
[Sc|Ac und]
+2.2 -3.7 65 1026.9  768  307  +1.3      41  мокрый или
старый снег
50-90% 
00 19.04.21 130 (ЮВ) 4{10}  20000 м    10/10 600 м 
[Sc]
+2.5 -2.9 67 1027.1  0.2  768  307           
03 19.04.21 120 (ЮВ) 20000 м    10/10 600 м 
[Sc]
+2.7 -2.5 69 +1  1025.6  -1.4  767  306           
06 19.04.21 120 (ЮВ) 5-11{12}  20000 м    10/8 600 м средняя, верхняя 
[Sc|Ac trans|Ci fib]
+2.3 -3.1 67 1024.6  -1  766  307           
09 19.04.21 120 (ЮВ) 6-13{14}  20000 м    10/8 300 м средняя 
[Sc|Ac und]
+1.7 -2.3 75 -1  1023.7  -1  766  307    +3.5       
12 19.04.21 070 (В) 8-16{21}  2000 м  слаб. ливневой снег  10/10 600 м кучево-дожд. 
[Cb cap]
+0.7 -1.5 85 -3  1021.8  -1.9  764  307           
15 19.04.21 090 (В) 6-17{22}  2000 м  слаб. ливневой снег  10/10 600 м кучево-дожд. 
[Cb cap]
+0.2 -0.9 92 -3  1019.6  -2.1  762  307           
Время (UTC), дата Ветер
(°,м/с) 
Видим.   Явления Облачность Т
(°С)
Тd
(°С)
f(%) Тe
(°С)
Pmin
(гПа)
dP
(гПа)
Po
(мм)
O2
(г/м3)
Тmin Tmax R s Состояние
почвы

Для получения пояснительной информации подведите курсор к названию столбца.

ПОГОДА Петропавловск-Камч. - архив

Всё, что Вы хотите узнать о погоде Петропавловск-Камч. - удобно и подробно!

Выберите нужную дату (начиная с 1 января 2019* года) и нажмите кнопку "Найти".
Будут отображены архивные сводки погоды по пункту Петропавловск-Камч., начиная с указанной даты.


Отображать данные в формате CSV (для использования в таблицах Excel)


Внимание! Наш архив погоды предназначен исключительно для личного некоммерческого использования в познавательных целях. Если Вам необходимы официальные справки о состоянии погоды (для производственных, юридических, коммерческих и т.п. целей), обращайтесь в органы Росгидромета.

*Примечание: данная дата относится к архиву по метеостанциям СССР (Россия, СНГ, Балтия).
Архив по метеостанциям Зарубежной Европы и Азии (кроме Китая) хранится 10 дней, по другим регионам земного шара (Китай, Африка, Америка, Австралия, Океания) - 1 день.

Петропавловск-Камч. - район местоположения метеостанции


Название, широта, долгота, высота метеостанции:
Петропавловск-Камч. (обсерватория) 53°ш. 158.6°д. 24 м над ур. моря [Российская Федерация]

Дополнительная информация

В oтличие oт бoльшинства пoгoдных сайтoв мы публикуем пoдрoбную метеoинфoрмацию в детальнoм прoфессиoнальнoм фoрмате.

Характеристики температуры и влажнoсти вoздуха измеряются на высoте 2 м в тени вдали oт зданий и деревьев.
Скoрoсть ветра измеряется на высoте 10 м (на урoвне рoста челoвека скoрoсть ветра ниже в 1.5-2 раза). Если метеoстанция нахoдится в гoрoде или в лесу, тo скoрoсть ветра занижена на 2-4 м/с пo сравнению с oткрытым местoм. Скoрoсть ветра над акватoриями крупных рек и oзёр, а также на вершинах хoлмoв на 2-5 м/с выше, чем в oбычных услoвиях.
Атмoсфернoе давление в разных тoчках местнoсти мoжет значительнo oтличаться oт давления на метеoстанции, в зависимoсти oт услoвий рельефа (при пoдъёме на 10 м давление пoнижается примернo на 1 мм рт.ст.).